Wind_Speed
57 57 56 53 50 47 44 43 43 42 43 45 47 49 50 51 51 51 52 54 55 56 57 58 58 59 60 61 63 64 65 66 67 68 69 71 72 73 72 71 70 70 70 69 69 70 70 71 71 71 71 70 71 73 75 76 77 77 77 76 77 79 81 81 81 76 70 70 72 75 78 80 80 84 88 89 91 96 99 102 105 108 110 112 112
54 54 53 49 45 43 42 42 43 44 46 48 49 49 50 50 50 52 53 55 56 57 58 59 61 62 64 65 66 67 67 68 68 69 70 71 72 72 72 71 70 69 69 70 70 71 71 72 73 73 73 72 74 76 76 76 75 74 75 76 77 78 80 80 80 78 74 71 72 75 79 82 83 85 89 92 94 99 102 105 108 111 113 115 113
52 51 50 47 45 42 42 44 46 48 50 51 50 49 49 50 51 53 54 55 56 58 61 63 64 65 66 66 67 67 68 68 69 69 70 71 71 70 69 68 67 67 68 69 70 71 71 72 73 73 73 73 74 75 75 73 72 73 73 75 75 76 78 79 79 79 78 74 73 75 79 83 86 88 91 94 96 102 106 109 111 113 115 114 111
52 50 48 47 45 45 46 48 50 52 53 51 50 50 51 52 53 54 55 56 58 61 63 65 66 66 66 67 67 67 68 68 68 68 69 69 69 68 67 66 66 66 66 67 68 69 70 71 72 73 73 73 73 73 72 71 71 71 72 73 74 74 76 79 80 80 80 77 76 78 81 84 88 91 94 97 99 102 106 110 113 115 114 110 106
52 50 48 47 46 47 50 52 53 54 53 51 52 53 53 54 55 56 56 58 61 63 65 66 66 67 67 67 67 67 67 67 67 67 68 70 70 70 69 68 67 66 65 66 67 68 69 70 72 74 74 72 71 70 69 70 70 70 71 71 73 74 76 79 81 81 82 81 80 80 83 87 89 91 96 100 101 103 106 109 112 113 110 105 101
50 49 49 49 49 51 52 54 55 54 51 52 54 55 55 56 57 58 59 61 63 65 66 67 68 68 67 66 65 65 64 64 64 65 66 66 67 68 68 67 66 66 66 66 67 68 69 70 72 73 72 69 68 68 69 70 70 70 71 72 73 75 77 79 81 82 82 82 83 83 84 88 91 93 96 101 104 106 108 109 109 109 105 100 96
49 49 50 51 52 52 53 55 55 53 52 55 57 57 57 58 59 60 62 63 65 66 67 68 67 66 64 63 62 63 63 63 64 64 64 64 64 65 65 65 66 65 66 66 67 68 69 70 71 70 68 66 67 69 69 70 70 70 71 72 74 76 78 80 81 82 82 82 84 86 88 90 93 96 98 102 105 107 108 108 106 102 99 95 90
49 50 51 52 53 54 55 55 55 55 57 59 60 59 60 60 61 63 64 65 66 66 66 65 63 61 60 60 62 63 63 63 64 64 64 64 64 63 63 64 65 65 66 67 68 70 71 71 70 68 66 67 69 69 69 69 70 70 71 72 74 76 79 80 81 82 83 85 86 88 91 93 95 97 100 102 105 106 106 106 104 98 92 87 80
51 52 53 55 57 58 58 58 57 58 61 62 62 62 62 62 63 64 64 65 65 64 63 62 61 60 61 62 62 62 62 61 61 62 62 62 62 62 62 63 64 65 66 68 70 72 72 70 68 67 67 68 69 69 70 71 71 71 72 74 76 78 80 82 83 84 86 88 89 91 93 95 96 99 101 103 105 106 103 102 102 96 87 78 68
56 57 58 59 61 61 62 61 60 61 63 64 64 64 64 64 64 64 64 64 63 62 61 61 62 63 63 64 64 63 62 61 60 60 61 62 62 63 63 64 64 64 65 67 69 70 70 69 68 69 70 71 72 72 73 73 74 75 75 77 79 81 82 83 85 87 89 90 91 93 95 96 97 100 102 103 103 104 101 99 97 91 81 70 60
61 62 63 64 65 65 65 64 63 63 64 66 66 66 65 65 64 63 63 63 63 63 63 63 65 65 66 66 64 62 59 58 58 59 60 62 63 65 66 65 63 63 65 66 67 68 68 69 70 71 72 73 74 74 75 75 76 77 77 78 80 81 83 84 85 87 89 91 92 93 95 97 98 100 102 102 101 102 100 96 93 85 73 65 57
65 66 67 68 68 68 67 65 64 64 66 67 67 66 65 64 63 63 63 64 65 65 66 67 68 68 68 64 59 56 55 55 57 59 61 63 64 66 65 62 59 61 64 65 66 67 68 69 69 69 71 72 72 73 74 75 76 77 78 78 80 81 82 83 84 86 88 91 92 93 95 98 100 99 99 99 100 100 99 96 91 79 67 62 58
69 69 69 70 70 69 67 66 65 65 67 67 67 65 64 63 63 63 64 65 66 67 68 69 68 65 62 57 53 53 56 58 59 61 63 64 65 64 62 58 56 58 61 63 63 64 65 66 67 68 69 71 71 72 73 74 76 77 77 77 78 78 79 81 82 85 89 92 93 93 94 97 99 96 96 98 99 98 97 95 87 75 64 60 59
73 73 71 70 69 67 67 66 65 66 66 66 65 64 62 62 62 62 63 65 66 67 66 64 61 57 54 52 53 56 58 60 60 62 63 64 64 63 61 60 59 60 61 62 62 63 64 65 66 67 68 70 71 72 73 74 75 76 76 77 77 78 79 80 82 85 89 91 93 93 94 95 95 94 94 97 98 97 95 91 83 72 63 60 61
76 74 72 70 68 67 66 65 65 65 65 64 63 62 61 61 61 62 63 64 65 64 61 58 55 52 52 54 57 57 58 58 59 61 62 62 63 63 62 63 63 62 63 64 64 64 65 66 66 67 69 70 72 73 74 74 75 75 76 77 77 78 79 80 82 85 88 90 92 95 96 94 93 94 95 96 97 95 92 85 76 69 64 63 63
76 74 71 69 68 67 66 66 65 65 64 63 61 60 60 60 60 61 61 61 61 60 59 57 55 55 56 58 59 58 56 56 57 58 60 61 61 61 62 62 63 64 65 65 66 66 66 67 68 69 70 72 73 74 74 74 74 74 75 76 76 77 77 79 82 85 87 90 93 95 95 94 95 97 96 96 97 95 89 80 69 64 66 65 62
76 73 71 69 68 67 67 66 65 64 62 61 60 59 59 58 57 57 58 58 58 58 58 57 57 59 60 61 60 58 56 56 56 56 56 57 58 58 60 62 64 66 67 67 67 67 67 68 69 70 72 73 74 74 74 74 74 74 75 75 75 76 77 79 81 83 85 89 91 92 93 93 96 97 96 96 95 91 85 76 66 63 67 65 60
76 73 71 71 70 68 67 66 65 63 61 60 59 58 56 55 55 55 56 56 57 57 57 58 60 62 63 62 61 58 55 55 56 55 55 56 58 60 63 66 68 67 67 66 66 66 67 68 70 72 73 74 74 74 74 75 75 75 76 76 76 76 77 79 80 82 84 87 89 89 90 92 95 95 94 93 89 83 78 72 65 65 67 64 59
74 74 73 73 72 71 70 68 65 62 60 58 56 55 54 53 53 54 53 54 54 55 57 59 61 62 63 62 60 58 56 56 57 56 56 57 59 62 66 69 68 66 63 63 63 65 67 69 72 74 74 73 73 73 74 75 76 76 77 78 77 77 77 79 80 82 84 86 87 87 89 90 93 94 93 89 82 73 70 68 66 66 66 61 58
73 74 74 74 73 72 71 67 63 60 57 55 53 53 52 52 51 51 51 52 53 55 57 59 61 62 63 62 61 60 60 60 60 59 59 59 61 63 66 68 67 63 60 60 62 64 67 70 72 73 73 73 73 73 74 75 76 77 78 78 78 78 78 79 80 83 86 87 87 87 88 89 91 92 92 86 75 66 64 66 66 65 63 59 56
73 74 75 74 73 73 71 68 65 63 59 56 54 52 50 49 48 47 48 49 51 53 56 58 60 61 62 62 62 64 65 66 66 64 63 63 65 65 67 68 66 62 60 61 63 66 69 70 72 72 72 73 73 74 74 75 76 77 78 78 78 79 80 80 81 84 86 87 87 87 88 90 90 90 88 79 68 61 61 63 64 62 59 56 53
73 74 75 76 75 74 73 71 70 67 61 57 54 51 49 47 46 46 47 50 54 57 60 62 62 62 62 62 63 65 67 69 69 69 68 69 68 67 67 67 66 64 63 64 66 69 71 72 72 72 73 73 73 73 74 75 76 77 77 77 78 79 80 81 83 85 87 87 88 88 89 90 91 88 80 69 61 58 60 61 60 59 56 53 52
74 75 76 76 76 76 75 74 72 68 62 58 55 51 49 48 47 48 51 55 59 62 63 64 65 65 65 66 66 68 70 71 72 73 73 72 70 68 67 67 67 66 66 67 70 72 73 73 73 73 73 73 73 73 74 75 75 76 76 77 78 79 80 82 84 86 88 88 88 89 90 91 91 84 71 60 55 56 57 58 57 56 54 51 51
73 75 76 76 76 77 75 73 70 65 62 59 56 52 50 51 51 52 54 57 59 62 63 64 65 66 68 70 71 73 74 76 77 76 75 74 73 71 70 69 68 68 69 71 73 74 74 74 73 73 73 72 72 73 74 75 75 75 75 76 78 79 81 83 85 87 89 89 89 89 90 90 89 78 63 53 52 53 54 55 54 53 52 50 49
71 72 73 74 75 74 72 69 66 63 61 60 57 55 54 55 55 55 56 57 59 61 62 63 64 66 68 70 73 75 77 79 80 79 79 79 78 76 73 70 69 69 71 73 75 76 75 74 73 72 72 72 72 72 73 74 74 74 75 77 79 80 82 84 86 88 89 89 89 90 89 88 83 70 56 50 50 51 52 52 51 51 51 50 49
71 72 72 72 72 71 70 69 66 63 62 62 61 59 59 59 59 58 58 59 60 62 63 64 65 66 68 70 73 76 78 80 81 81 82 82 81 77 73 70 69 70 71 73 75 76 75 73 72 71 71 70 70 71 71 72 73 74 76 78 79 81 83 85 87 88 89 90 90 90 88 84 75 60 50 48 48 49 49 49 49 49 49 49 48
70 72 73 73 72 70 68 68 67 65 63 64 64 65 65 65 64 64 63 62 63 65 66 67 68 69 71 72 74 77 79 80 82 83 84 83 79 76 74 71 69 70 71 73 75 76 74 72 71 69 69 68 68 69 70 71 73 75 77 79 80 81 83 85 87 88 90 90 90 89 85 78 66 53 47 47 47 47 47 47 47 47 47 48 48
71 74 76 77 76 73 69 66 65 66 67 68 69 71 72 72 72 71 70 69 70 70 70 70 71 72 74 75 76 77 79 80 82 84 83 81 79 78 76 73 71 70 72 73 75 74 72 70 68 67 66 66 66 67 69 71 73 75 77 78 80 82 84 86 87 89 90 90 89 87 80 69 58 50 46 46 46 46 45 46 46 46 45 47 47
74 76 78 79 80 79 75 71 68 69 72 74 74 74 75 77 77 78 78 77 77 76 75 74 74 75 76 76 76 78 79 80 82 82 82 81 79 78 78 75 72 71 72 73 73 72 69 67 66 64 64 64 65 66 68 70 72 75 76 78 80 81 83 85 87 88 89 88 87 83 72 60 52 48 46 45 45 44 44 45 46 45 45 45 46
77 78 79 80 82 83 82 79 75 75 76 77 76 76 78 79 81 82 82 81 80 80 79 79 79 79 77 75 77 79 80 80 80 81 80 78 77 77 77 75 72 71 71 71 70 68 67 65 64 63 63 63 64 66 68 70 72 73 75 77 80 81 83 85 86 87 86 85 83 75 62 53 50 47 45 45 44 42 43 45 46 45 45 44 45
79 80 80 81 81 81 82 80 77 76 76 77 78 79 81 83 84 85 85 85 85 84 84 84 84 83 80 78 79 79 77 76 76 76 76 76 75 75 75 72 70 69 68 67 66 65 64 63 63 62 62 63 64 66 68 70 71 72 74 76 79 81 83 84 85 85 83 82 77 66 54 49 49 47 45 45 43 42 43 44 45 45 45 44 44
83 83 83 83 82 81 81 81 80 79 79 80 82 84 86 88 89 89 89 89 88 88 89 89 89 86 83 80 79 76 74 73 74 74 75 75 74 73 71 69 68 67 65 64 63 63 62 61 60 60 61 62 64 67 68 70 71 72 73 75 78 81 83 84 83 82 80 76 69 59 50 48 47 46 45 45 43 42 43 44 44 45 44 43 42
85 86 87 86 86 84 81 80 81 82 84 86 88 89 90 91 91 91 91 91 91 93 93 92 88 84 81 79 77 76 75 74 74 74 74 72 70 68 68 67 66 64 61 60 60 60 59 59 58 59 60 62 64 66 68 69 70 72 74 76 78 80 82 82 81 78 75 69 62 54 49 47 46 45 45 45 44 43 43 43 43 43 41 40 39
88 88 89 89 89 87 83 80 81 84 88 90 91 92 93 94 94 94 94 95 97 97 94 89 85 83 81 78 76 74 72 71 72 72 71 69 67 67 67 66 63 60 58 57 56 56 56 56 57 58 60 62 63 65 67 69 70 72 74 76 78 80 80 79 77 73 68 61 56 52 49 46 45 45 45 45 44 43 43 43 42 40 39 37 36
90 90 90 90 90 89 86 85 87 91 93 94 96 99 101 102 102 102 102 102 102 99 94 91 89 88 85 81 77 73 70 69 69 69 68 67 66 66 64 62 59 56 54 53 53 53 53 54 56 58 59 61 63 65 67 69 70 72 74 76 78 79 78 75 71 67 62 55 51 51 49 45 43 44 44 44 44 43 42 41 40 38 36 35 34
96 96 95 94 94 94 95 97 100 101 101 100 101 103 105 107 108 109 109 109 106 100 95 92 90 88 85 80 75 70 67 66 66 66 66 65 64 62 61 58 55 52 50 50 50 51 52 53 55 57 58 60 62 65 67 68 70 72 74 76 77 77 75 70 66 61 56 51 49 50 48 44 43 43 43 43 43 42 41 40 37 36 35 33 32
107 107 106 105 104 104 105 108 110 110 108 106 105 104 104 105 106 105 104 103 99 94 89 86 84 81 78 72 66 64 63 64 65 65 62 60 59 59 57 54 51 49 47 48 49 50 51 52 54 56 58 60 62 64 66 68 70 72 74 75 76 75 70 65 60 56 51 49 48 49 47 45 43 43 43 43 43 42 40 38 35 34 34 32 31
114 114 114 114 114 112 111 111 111 109 107 103 100 98 97 97 96 94 91 89 86 83 81 78 74 70 66 62 60 61 63 64 62 59 56 55 56 55 53 50 47 45 45 46 47 48 49 51 53 55 57 60 62 64 66 68 70 71 72 74 74 71 65 59 54 50 48 48 48 48 47 45 44 43 43 43 42 41 38 35 32 32 32 30 30
112 111 110 109 108 106 103 101 99 97 94 90 88 86 84 83 81 79 77 74 72 69 66 63 59 57 57 59 61 62 61 58 55 53 52 53 53 51 48 45 43 43 43 44 45 46 48 50 53 55 57 60 62 64 65 67 69 70 71 72 70 66 60 54 49 46 46 47 47 47 46 44 44 43 42 42 42 40 36 32 30 31 30 28 28
98 97 95 92 89 86 84 82 81 79 77 75 72 70 68 66 66 64 61 57 54 52 52 52 53 55 57 59 59 58 56 53 51 50 50 49 48 46 44 42 41 41 41 42 43 45 48 50 53 55 58 60 62 64 65 67 68 69 70 69 66 61 56 51 46 44 44 45 46 45 44 44 44 43 42 41 41 39 35 30 29 30 29 27 25
78 76 74 71 68 66 65 65 64 62 60 57 55 55 54 55 55 53 50 47 46 46 47 49 51 54 55 56 56 55 52 50 48 46 46 46 45 43 41 39 39 39 40 41 43 45 48 50 53 56 59 61 62 64 65 67 67 68 69 66 62 58 53 47 43 42 42 43 44 43 42 43 44 43 41 40 39 36 33 29 28 29 28 26 24
60 59 57 55 53 52 52 52 50 49 47 46 47 48 49 47 46 44 44 44 46 48 49 50 51 53 55 55 54 51 47 44 43 44 44 44 42 40 38 37 37 38 39 41 43 46 48 51 54 56 59 61 62 63 65 65 66 67 67 63 58 54 49 44 41 40 40 41 42 41 40 41 43 42 41 40 38 35 31 28 28 29 28 25 23
52 52 50 48 46 45 44 42 42 42 42 44 47 46 43 41 40 40 41 44 47 50 53 54 54 54 53 51 47 43 41 41 42 43 42 41 39 37 36 36 36 37 39 41 43 46 49 52 54 57 59 60 61 63 64 65 66 66 65 61 56 51 46 41 39 39 39 39 39 38 38 38 39 39 39 39 37 34 30 28 28 28 27 25 22
49 49 47 45 44 43 41 39 40 41 43 46 47 44 40 40 42 44 45 47 50 53 55 55 53 50 47 43 41 39 40 41 41 40 39 38 37 36 35 35 36 37 39 41 43 46 49 52 55 57 58 60 61 63 64 65 66 66 63 58 53 49 44 40 38 38 38 37 37 36 35 36 36 36 36 36 35 32 30 28 28 28 27 24 21
45 45 46 45 43 42 40 39 39 41 44 45 44 42 41 42 45 48 50 52 53 53 51 49 45 42 39 38 38 38 39 40 39 39 38 37 36 35 34 35 36 38 40 42 44 47 49 52 55 57 58 59 60 62 63 65 65 64 61 56 52 46 42 38 37 37 37 37 37 35 34 34 34 34 34 34 32 30 29 28 28 29 27 24 20
42 43 45 45 42 40 39 39 39 41 41 41 41 41 42 44 46 48 49 49 48 46 43 40 37 36 35 36 37 38 38 38 38 38 37 36 34 34 35 36 37 39 41 43 45 47 50 53 55 56 57 58 59 60 62 63 63 61 58 54 50 45 40 37 37 37 37 37 37 35 33 32 32 32 31 31 29 27 27 27 27 28 26 23 20
41 40 42 42 40 39 39 38 38 37 37 37 38 40 42 44 45 45 44 42 39 37 35 33 33 33 34 35 36 37 37 38 37 36 35 34 34 34 36 37 38 40 42 44 46 48 51 53 54 55 56 56 58 59 61 62 61 58 54 51 47 42 39 37 37 37 37 37 36 35 33 32 31 30 30 29 26 24 24 25 26 26 25 22 19
36 36 38 38 38 38 37 35 34 35 36 38 40 41 42 42 41 39 36 33 31 30 30 31 31 32 33 35 36 36 37 37 36 34 33 33 34 35 36 38 40 41 42 44 47 49 51 52 54 55 55 56 57 59 60 60 58 54 51 49 45 40 37 36 36 37 37 36 35 34 33 32 31 30 29 28 25 22 22 23 24 24 23 21 19
32 34 36 37 36 35 33 32 33 36 40 42 43 42 39 36 33 31 29 28 28 29 29 30 31 32 34 35 35 36 35 34 33 33 33 34 35 36 38 39 40 41 43 46 48 50 51 52 53 54 55 56 58 58 58 57 55 51 48 46 43 38 35 35 35 36 36 36 34 33 32 31 30 29 28 27 24 22 21 21 21 22 22 21 19
31 33 34 34 32 31 31 32 35 38 39 39 38 35 31 27 26 25 26 26 27 28 29 30 31 33 34 34 34 33 33 32 32 33 34 35 36 38 39 40 41 42 45 47 49 50 51 52 53 55 56 57 58 58 57 55 51 48 45 44 41 37 34 34 34 35 35 35 33 31 30 29 29 27 26 25 24 22 20 19 18 19 20 20 19
30 32 31 29 27 27 31 34 35 34 33 31 29 27 25 24 24 25 25 26 26 28 29 30 31 31 32 32 31 31 31 32 32 34 35 36 38 39 39 40 42 44 46 47 49 50 51 52 53 55 57 58 58 57 55 51 48 45 43 42 40 36 33 32 33 33 34 34 34 32 30 29 28 26 25 24 23 22 19 17 16 17 18 18 18
Wind_Direction
277 278 278 278 278 277 276 275 275 276 277 279 281 284 286 287 287 287 286 285 285 284 285 285 286 287 287 287 287 286 286 285 285 286 286 287 286 286 284 283 282 281 281 281 282 282 282 282 281 281 281 282 282 283 285 286 288 289 288 288 288 288 289 290 291 291 292 293 293 294 293 292 292 292 292 293 294 295 295 296 297 298 300 302 303
274 274 275 275 275 273 273 275 277 279 281 282 283 284 285 285 286 286 285 285 284 284 284 283 284 284 285 285 285 285 284 284 285 286 286 286 285 285 284 283 282 282 283 283 284 285 284 283 282 282 282 283 284 285 286 288 288 288 288 288 289 290 291 292 294 295 295 295 295 294 294 293 294 293 294 295 296 296 297 298 299 301 303 304 304
272 271 271 272 272 271 274 279 282 282 282 282 283 283 283 284 284 284 284 284 285 284 283 283 283 284 284 284 284 284 284 284 285 285 285 285 285 284 284 284 285 286 286 287 288 288 288 287 286 286 286 286 286 287 287 287 287 287 288 290 291 292 294 295 296 297 297 297 296 295 294 295 296 296 296 297 297 298 299 300 301 302 305 306 304
271 271 272 271 269 271 278 283 284 284 283 282 282 283 283 283 283 283 284 285 286 285 285 285 286 286 286 286 285 285 285 285 285 285 285 285 285 285 285 286 287 288 288 290 291 291 292 291 291 290 290 288 287 287 287 287 287 288 290 291 292 294 295 296 297 297 297 297 297 297 297 297 297 298 298 299 299 300 301 302 303 305 307 307 303
272 274 274 271 269 273 280 283 285 285 282 282 284 284 283 282 283 284 285 286 287 286 286 287 288 288 287 287 287 286 286 287 287 288 288 288 287 287 287 287 287 287 288 289 291 291 292 292 292 291 290 288 286 286 287 288 289 290 291 292 294 295 296 297 297 297 297 298 299 299 299 299 299 299 300 301 301 302 303 305 307 308 308 306 303
274 275 275 273 273 277 281 284 286 283 280 282 285 283 282 283 283 284 285 286 287 287 288 288 288 288 288 288 289 289 290 292 293 294 294 294 293 291 289 288 287 287 288 290 291 292 292 292 292 290 288 287 287 288 289 289 290 291 292 294 295 296 297 297 297 297 298 299 299 300 300 300 300 301 301 303 303 305 307 308 309 309 307 305 303
272 274 275 274 275 278 282 286 286 280 279 284 284 281 281 282 283 283 285 286 287 287 287 287 287 287 289 291 292 294 295 296 296 296 296 295 294 293 291 290 290 290 291 292 294 295 294 293 292 289 287 288 289 290 290 291 291 292 294 295 296 296 296 296 296 296 297 298 299 300 301 301 302 303 304 305 307 309 310 309 309 309 306 304 302
271 272 273 274 277 281 284 286 284 279 279 283 282 279 280 281 281 282 284 285 286 286 286 286 286 288 290 293 294 295 295 294 294 293 293 293 294 294 294 293 293 294 294 295 296 297 296 293 290 288 288 289 291 291 292 293 293 294 295 295 295 295 295 294 294 295 296 298 299 301 302 304 306 306 308 309 311 312 311 310 309 308 305 303 299
271 272 274 277 281 284 286 287 284 279 279 281 281 279 279 280 281 282 283 284 285 284 284 285 286 289 292 294 295 295 294 293 293 293 293 294 294 295 295 295 295 295 295 296 297 296 294 292 291 290 290 291 293 294 295 296 296 296 295 295 295 295 294 294 294 295 297 298 301 303 305 307 309 310 311 313 313 313 312 309 309 308 305 301 293
272 273 277 280 284 286 288 288 285 281 279 280 279 278 277 279 280 281 282 282 282 282 283 285 288 290 293 294 295 294 294 294 295 295 295 296 296 296 296 296 295 295 296 297 297 296 295 295 295 295 294 294 294 295 296 297 298 298 297 296 295 295 294 295 296 298 299 301 304 306 307 309 311 313 314 315 314 312 311 309 308 306 302 296 287
274 275 278 281 284 287 288 286 284 280 278 277 277 275 275 277 278 279 280 281 281 282 284 286 289 291 293 295 296 296 295 296 296 296 297 297 297 297 297 295 294 295 296 297 296 296 297 297 298 297 296 296 296 295 296 296 297 297 297 296 294 294 295 297 299 301 303 304 306 308 310 311 313 315 316 315 313 312 311 309 308 304 298 290 283
276 278 279 282 284 286 286 284 281 278 275 274 274 273 274 276 277 278 279 280 282 283 285 287 290 292 294 295 295 295 296 298 298 297 297 297 297 298 297 295 294 295 296 295 296 296 297 297 297 297 297 297 296 296 296 296 296 297 296 295 294 295 297 299 302 303 304 305 307 309 312 313 315 317 317 314 313 312 311 309 308 302 293 285 281
280 281 283 284 285 284 283 281 278 275 272 272 272 272 273 276 278 279 281 283 285 287 289 291 293 293 293 293 293 295 298 299 299 298 298 297 297 298 297 295 295 296 295 295 296 296 296 296 297 296 296 296 296 296 296 296 296 296 295 295 295 297 299 301 304 305 306 307 309 312 314 316 317 318 316 313 312 311 310 309 306 300 290 284 281
283 284 285 284 283 281 279 277 274 272 271 271 271 272 274 277 279 282 284 287 289 291 293 293 293 292 290 291 294 297 299 300 299 298 298 297 296 296 294 294 294 294 294 294 296 296 296 297 297 296 296 296 296 296 295 295 295 295 295 295 296 298 300 302 304 306 308 310 312 314 316 317 317 317 315 313 312 311 310 308 303 297 290 286 284
284 284 283 280 278 276 275 273 271 270 269 270 271 273 275 278 281 284 287 289 291 292 293 293 291 290 290 293 296 298 299 300 300 298 297 296 295 294 293 292 291 291 292 293 294 295 296 296 296 296 296 295 295 295 295 295 295 295 295 296 297 299 301 304 306 307 309 311 313 315 316 317 317 316 315 313 312 311 309 304 300 295 291 289 289
282 281 278 275 273 272 271 269 268 268 269 270 272 275 278 281 284 286 288 289 290 291 291 291 290 290 291 294 296 297 298 299 299 298 297 296 296 296 295 294 294 293 293 294 294 294 295 295 296 296 296 295 295 295 294 294 295 295 296 297 298 301 303 305 307 309 311 313 314 316 317 317 317 317 316 314 312 311 307 302 298 294 292 292 292
279 277 274 271 270 269 268 267 267 267 269 271 274 278 280 282 284 287 289 290 290 290 290 290 290 291 292 294 294 294 294 296 297 298 299 299 299 299 299 299 299 298 296 296 295 295 295 296 296 296 296 296 295 294 294 294 295 296 296 298 299 302 303 305 308 310 312 314 315 316 316 316 317 317 316 314 313 309 305 301 298 295 294 295 294
275 273 271 270 269 268 267 267 267 268 270 273 276 278 280 282 285 288 289 289 289 289 290 292 292 292 292 292 291 290 290 294 297 298 300 302 302 302 303 303 302 299 298 297 296 296 297 297 297 297 297 296 295 295 294 295 296 297 298 299 301 303 304 306 308 310 312 314 315 315 316 316 316 316 315 313 311 306 301 300 300 298 298 297 295
271 271 270 270 269 268 267 267 269 271 273 275 276 278 280 283 285 287 287 289 290 291 292 293 293 293 292 291 289 287 289 293 296 298 300 301 302 304 306 306 303 300 298 298 298 299 299 299 298 298 297 296 295 294 295 295 297 298 300 301 302 303 305 308 309 310 312 313 314 314 315 316 316 314 313 312 308 301 298 299 299 299 298 297 295
270 269 269 269 269 269 269 271 272 274 275 276 277 278 280 282 284 285 287 288 290 291 293 293 293 292 292 291 289 287 289 292 295 297 299 300 303 307 309 307 303 301 301 302 302 302 302 300 299 298 296 295 294 294 295 297 298 300 301 302 303 305 307 308 310 311 312 313 314 314 315 316 315 313 312 310 305 298 297 298 298 298 297 296 295
268 268 268 268 269 270 272 273 274 274 275 275 276 277 278 280 282 284 285 287 289 291 293 294 294 294 293 291 290 289 290 292 294 296 297 300 304 308 310 308 304 301 303 305 305 305 304 302 300 297 295 294 293 294 296 297 299 301 302 303 305 306 308 309 310 312 312 313 314 315 316 316 315 313 311 307 301 296 296 297 297 297 296 295 295
269 269 269 270 270 271 272 272 272 272 273 274 274 275 276 278 279 281 283 285 287 290 292 293 294 295 296 295 293 292 292 293 294 295 297 301 304 307 309 307 303 299 300 303 305 306 305 302 299 296 294 293 293 294 296 298 299 301 303 304 306 307 309 310 311 312 313 313 315 316 316 315 314 313 309 303 297 295 295 296 296 294 294 294 295
271 271 272 273 272 272 271 270 269 269 271 271 271 271 273 275 276 278 281 284 286 288 290 291 291 293 295 296 297 297 296 296 297 297 298 300 304 306 306 305 301 298 298 301 303 305 304 302 298 295 293 292 293 294 296 298 300 302 304 305 307 308 309 310 312 313 314 315 316 317 316 315 314 313 307 299 294 294 294 294 294 292 292 293 295
271 271 271 271 270 269 268 266 265 266 267 267 268 268 269 270 272 275 279 283 285 287 289 290 290 290 291 293 295 297 297 298 299 300 300 300 303 304 304 302 300 299 298 299 301 302 302 300 296 293 292 291 292 294 296 299 301 303 305 306 307 308 309 311 313 314 315 316 316 317 316 315 314 312 304 295 293 293 292 293 293 291 291 292 293
268 269 269 268 268 268 266 264 264 263 263 264 265 264 265 267 269 273 279 283 284 285 286 288 290 291 291 292 293 294 296 297 299 301 301 301 302 302 301 300 299 299 298 299 300 300 300 298 294 292 290 291 292 295 297 300 302 304 305 306 307 309 310 312 313 314 315 316 317 317 316 315 313 309 301 294 293 293 291 291 291 290 290 291 292
267 268 269 269 269 268 267 265 264 263 262 262 262 262 263 266 268 272 277 280 282 283 285 287 289 292 293 294 294 295 296 297 298 300 301 301 301 300 298 298 298 298 298 299 298 297 296 294 292 290 290 291 293 296 299 301 303 305 306 307 308 310 312 313 314 315 316 317 317 317 316 314 312 306 298 294 294 292 290 290 289 288 289 290 291
269 269 270 270 271 270 268 267 265 263 262 261 261 261 262 264 267 271 275 279 282 284 286 288 291 293 295 296 296 296 297 297 298 299 300 300 299 298 297 297 298 298 299 298 297 295 293 291 290 289 290 292 294 297 300 302 304 305 307 308 310 312 314 315 315 316 317 317 317 318 316 313 310 303 297 295 295 293 290 288 288 287 287 289 291
268 268 268 269 270 271 270 268 265 263 263 262 261 261 262 264 267 271 274 279 282 284 286 288 291 294 296 296 296 296 297 297 297 298 299 299 298 296 295 297 298 299 298 297 295 292 290 289 288 289 290 293 295 298 301 303 304 306 308 310 312 313 315 316 316 317 317 318 318 317 315 311 307 301 297 296 295 293 291 288 288 287 286 288 290
267 266 266 266 267 268 268 267 265 263 263 263 263 263 264 266 268 271 274 278 281 284 285 288 291 294 296 295 295 296 296 296 296 297 298 298 296 294 294 295 297 297 296 295 292 289 288 287 287 289 291 293 296 298 301 303 304 307 309 311 313 314 315 316 317 317 318 318 317 316 313 308 304 300 297 297 296 294 292 290 289 289 288 289 290
266 266 266 265 264 264 265 266 265 264 264 265 266 267 268 269 271 271 273 276 280 283 285 288 291 294 294 293 293 294 294 294 294 295 295 294 292 291 293 294 294 293 293 292 289 287 286 286 287 289 291 294 296 298 300 302 304 307 309 311 313 314 315 316 317 318 318 318 317 315 311 306 302 300 297 297 296 294 293 293 292 291 291 290 289
265 266 266 265 264 263 263 265 265 265 265 266 268 270 271 273 274 273 273 275 278 281 284 287 291 293 293 291 291 292 291 291 290 290 290 290 290 290 292 292 291 290 289 287 286 284 284 285 287 289 292 294 296 298 300 303 305 307 310 312 314 315 316 317 318 319 319 317 315 312 308 304 302 299 298 298 297 295 295 295 294 294 292 291 288
264 265 265 264 263 263 263 264 266 267 269 270 271 272 273 274 275 274 274 275 277 280 284 287 290 292 292 290 288 287 286 285 285 285 287 288 289 290 290 289 288 286 285 284 283 283 284 285 287 290 292 295 297 299 302 304 307 309 311 313 314 316 317 318 319 319 318 316 313 310 306 304 301 299 299 299 297 296 296 296 295 295 293 291 287
262 263 263 263 263 263 263 265 267 270 272 273 273 273 273 273 273 273 273 275 277 281 285 288 290 290 289 286 284 283 282 282 282 284 286 287 288 287 286 285 284 282 281 280 281 282 284 286 288 291 293 295 298 301 304 306 309 311 313 314 316 317 318 319 320 319 318 314 311 308 307 305 301 299 299 299 298 298 297 297 297 295 293 289 285
261 261 261 261 261 262 263 265 268 271 273 273 274 274 275 274 273 273 273 274 278 282 285 287 288 287 286 283 281 280 280 281 281 282 284 284 284 282 281 281 280 278 277 278 280 282 284 287 289 292 294 298 301 304 306 308 311 313 315 316 317 319 319 320 320 318 316 312 308 307 307 306 302 299 299 299 299 299 299 299 298 295 293 289 283
261 261 260 259 259 261 263 266 270 272 274 275 276 277 277 277 276 276 275 276 278 281 284 284 285 284 283 281 279 277 277 279 280 279 279 279 278 278 279 278 276 275 275 277 280 282 285 287 290 293 297 300 303 306 308 310 313 315 316 318 319 320 320 320 319 317 313 309 306 307 307 306 303 301 300 300 301 301 301 300 298 295 293 289 283
264 264 263 262 261 262 264 267 271 274 276 276 277 277 277 277 276 276 275 275 277 280 281 281 281 281 280 278 276 275 276 277 277 275 273 273 274 276 276 274 272 273 275 277 280 283 285 288 292 295 299 302 305 307 310 313 315 316 318 319 320 321 320 319 317 314 311 308 306 307 308 308 305 303 301 302 303 303 302 301 298 296 294 290 284
264 265 266 266 267 266 266 268 272 274 276 277 277 277 276 275 275 274 274 274 276 278 278 278 278 277 275 273 272 272 273 272 270 268 268 269 272 274 273 271 270 272 275 278 281 284 287 291 294 298 301 304 307 309 312 314 316 317 319 321 321 321 320 318 314 311 309 308 307 308 309 308 307 306 304 304 304 304 303 300 297 296 295 291 286
265 266 267 269 271 271 271 272 273 274 276 277 277 276 275 274 273 274 274 274 274 274 274 273 272 271 270 269 269 268 266 264 264 264 265 268 270 270 268 268 270 273 276 279 283 286 289 293 296 300 303 305 308 311 313 315 317 319 321 322 322 321 319 315 311 309 307 308 308 308 308 308 307 307 306 305 305 304 302 299 296 295 294 291 288
269 270 270 271 272 273 274 274 274 274 275 276 275 275 273 272 272 271 271 270 270 269 268 268 266 265 265 264 263 261 260 260 261 262 264 266 266 265 264 267 270 273 277 281 284 288 291 295 299 302 305 307 310 312 314 316 318 320 322 322 322 321 317 313 308 306 305 306 308 308 308 307 307 307 306 305 304 303 301 298 294 293 291 290 289
269 270 271 272 272 273 272 272 273 273 274 273 272 271 270 269 268 267 265 263 262 261 261 261 261 260 260 259 259 259 259 260 260 260 261 262 262 261 263 267 270 274 278 282 286 290 294 298 301 304 306 309 311 313 315 317 319 322 323 323 322 320 315 310 306 305 305 306 307 308 307 306 306 306 305 304 303 302 300 296 293 291 290 291 289
266 267 267 268 269 269 268 268 269 269 268 268 268 268 268 267 266 264 262 258 256 255 255 256 256 257 257 257 257 257 257 257 257 257 258 258 258 260 263 266 270 275 280 284 288 293 297 300 303 306 308 310 312 314 316 319 321 323 324 323 321 318 313 308 304 304 305 306 307 308 307 305 305 305 304 303 302 302 299 296 293 292 293 294 289
261 261 260 261 262 261 261 261 262 260 260 263 265 267 266 263 260 258 256 253 252 253 253 254 254 254 254 254 254 254 254 254 254 254 254 255 257 260 263 267 272 277 282 287 292 296 299 302 304 307 309 310 313 315 318 320 323 324 324 323 320 316 311 305 303 303 305 307 308 308 306 304 303 302 302 302 302 302 299 295 292 293 295 296 289
256 254 253 253 253 252 253 255 255 255 258 262 263 262 259 255 252 253 253 252 252 253 253 253 252 252 252 252 253 253 252 251 251 251 253 255 257 260 264 270 275 280 285 290 294 298 301 303 305 307 309 311 314 317 319 322 324 324 323 322 320 315 310 305 302 303 304 306 307 306 304 302 301 300 300 301 301 301 298 293 290 290 292 294 286
254 251 248 245 244 246 249 250 250 255 262 264 260 253 248 246 248 251 253 253 254 254 254 253 252 251 252 252 252 250 249 248 249 250 252 254 257 262 267 273 278 283 288 292 296 298 301 304 306 308 310 313 316 319 321 324 325 324 323 321 319 315 309 304 302 303 304 306 307 305 303 302 301 300 300 301 301 300 297 292 289 288 290 292 283
257 252 245 240 241 244 248 250 254 260 264 261 253 246 243 246 250 252 253 253 254 255 254 253 252 251 250 248 247 246 246 246 247 249 251 254 259 265 270 276 280 285 289 293 296 299 303 305 307 309 312 315 318 321 323 325 324 323 322 320 318 314 309 305 304 305 307 308 308 307 304 303 303 301 301 301 300 299 296 292 288 287 288 290 281
261 252 243 240 243 247 251 258 263 263 258 251 245 243 245 250 254 255 253 252 252 251 250 249 247 245 244 243 242 243 244 245 247 249 252 257 263 268 273 278 283 287 291 294 298 301 304 305 307 310 313 316 320 323 324 324 323 321 320 319 317 313 309 307 307 308 309 310 310 308 305 304 304 303 303 303 301 299 297 293 288 287 288 288 279
261 249 241 241 246 251 257 263 263 255 247 244 243 244 248 252 254 253 250 248 246 244 241 240 238 238 238 240 240 242 244 245 247 251 255 260 266 271 275 280 285 288 292 296 300 302 304 305 307 310 314 317 321 323 324 323 321 319 318 318 315 311 307 307 309 311 311 311 311 309 307 306 305 306 306 305 301 297 294 290 287 286 286 285 275
253 243 240 245 251 256 259 258 250 241 240 244 245 246 249 251 249 246 241 237 234 232 231 232 233 235 237 239 240 242 244 246 249 254 259 264 269 273 278 282 286 290 294 298 300 302 304 306 308 312 315 318 321 323 322 321 318 316 316 316 313 309 306 307 310 312 312 312 311 309 308 307 307 308 309 307 302 295 289 285 282 283 285 283 270
245 242 246 251 255 256 254 248 241 238 241 244 244 245 246 244 239 233 227 223 222 224 227 229 232 234 236 238 240 242 245 248 253 258 263 267 272 276 281 285 288 292 296 298 300 302 304 307 310 313 316 319 321 321 320 318 316 314 314 314 312 307 304 306 310 312 312 312 311 309 307 307 309 309 310 308 303 296 290 285 281 281 284 282 266
246 249 252 256 256 251 244 241 240 241 241 240 239 238 234 227 219 216 216 217 220 224 226 229 232 235 237 239 242 244 248 253 257 261 265 270 274 279 283 287 290 294 297 298 300 303 306 308 311 314 317 319 320 320 318 316 313 312 312 312 310 305 302 304 309 311 312 312 311 310 308 308 309 310 310 307 303 298 294 288 282 280 282 278 261
251 252 255 258 257 249 241 238 238 237 234 230 225 219 211 206 206 210 214 217 221 224 227 230 233 236 239 242 244 248 252 257 260 264 268 273 277 281 285 288 292 294 296 298 301 304 306 309 312 315 317 318 318 318 316 313 311 310 310 311 309 305 300 302 307 310 311 312 313 312 311 310 310 310 309 305 300 298 296 292 286 282 280 272 253
Height
5649 5648 5646 5646 5645 5644 5643 5641 5640 5640 5639 5638 5638 5638 5637 5636 5635 5634 5633 5631 5629 5627 5625 5623 5621 5620 5618 5616 5615 5613 5611 5609 5608 5606 5604 5601 5599 5596 5593 5591 5588 5585 5583 5580 5579 5578 5577 5574 5570 5568 5567 5565 5562 5559 5557 5554 5552 5550 5546 5544 5542 5537 5536 5536 5537 5548 5557 5553 5546 5544 5536 5533 5536 5527 5517 5519 5515 5504 5502 5499 5490 5484 5481 5476 5471
5641 5640 5639 5638 5638 5637 5635 5634 5633 5632 5631 5630 5630 5629 5628 5627 5626 5625 5624 5622 5621 5619 5617 5615 5613 5611 5609 5607 5606 5604 5602 5601 5599 5597 5594 5592 5589 5586 5584 5581 5579 5576 5574 5572 5570 5569 5567 5565 5561 5559 5558 5556 5552 5549 5547 5545 5542 5540 5537 5533 5531 5526 5521 5521 5522 5525 5536 5540 5534 5531 5525 5516 5517 5516 5505 5502 5500 5489 5483 5482 5473 5465 5460 5454 5447
5633 5633 5632 5632 5631 5629 5628 5627 5625 5624 5623 5622 5622 5621 5620 5620 5618 5617 5615 5614 5612 5610 5608 5606 5604 5602 5601 5598 5597 5595 5593 5591 5589 5587 5585 5582 5579 5577 5574 5572 5570 5568 5566 5563 5562 5560 5558 5556 5553 5551 5549 5546 5543 5539 5537 5535 5533 5530 5528 5523 5519 5516 5510 5507 5507 5506 5512 5522 5521 5517 5514 5506 5500 5498 5491 5487 5486 5476 5466 5461 5456 5449 5442 5433 5424
5625 5625 5625 5625 5623 5622 5620 5619 5617 5616 5615 5614 5613 5613 5612 5611 5609 5608 5607 5605 5604 5602 5599 5597 5595 5593 5591 5589 5587 5585 5583 5581 5579 5577 5575 5572 5570 5567 5565 5564 5561 5559 5557 5555 5553 5551 5549 5547 5544 5542 5540 5537 5533 5530 5527 5525 5523 5520 5518 5514 5508 5506 5502 5495 5493 5492 5492 5501 5505 5501 5498 5493 5488 5482 5474 5469 5469 5464 5453 5444 5436 5431 5426 5415 5404
5618 5617 5617 5616 5615 5614 5612 5611 5610 5608 5607 5606 5605 5604 5603 5602 5600 5599 5598 5596 5594 5592 5590 5587 5585 5583 5581 5579 5577 5575 5573 5571 5569 5567 5566 5564 5561 5559 5557 5555 5552 5550 5548 5546 5543 5542 5540 5538 5535 5532 5530 5527 5523 5521 5518 5516 5514 5511 5507 5504 5500 5496 5492 5486 5481 5479 5477 5480 5485 5486 5482 5477 5474 5471 5460 5450 5449 5448 5441 5432 5420 5409 5405 5399 5389
5609 5608 5607 5607 5606 5606 5604 5603 5602 5600 5598 5597 5597 5596 5594 5593 5591 5589 5588 5587 5585 5582 5580 5577 5575 5573 5571 5569 5567 5565 5564 5562 5560 5558 5557 5555 5553 5551 5548 5545 5543 5541 5539 5536 5534 5532 5530 5528 5526 5523 5520 5518 5514 5511 5510 5507 5504 5502 5497 5493 5490 5486 5482 5477 5471 5467 5466 5465 5466 5468 5468 5463 5459 5458 5449 5435 5429 5426 5418 5414 5409 5395 5383 5378 5373
5601 5600 5599 5598 5598 5597 5596 5595 5593 5592 5590 5589 5588 5587 5585 5583 5582 5580 5579 5577 5575 5572 5570 5568 5566 5564 5562 5561 5559 5557 5555 5553 5551 5550 5548 5547 5545 5542 5540 5537 5535 5532 5530 5527 5525 5523 5521 5519 5516 5514 5510 5507 5505 5502 5500 5497 5494 5491 5487 5483 5480 5476 5472 5467 5462 5458 5455 5455 5453 5450 5450 5449 5444 5439 5433 5422 5413 5407 5394 5385 5388 5384 5368 5359 5355
5593 5592 5591 5590 5589 5589 5588 5586 5585 5584 5582 5581 5580 5578 5576 5575 5573 5571 5569 5567 5565 5563 5561 5559 5558 5556 5554 5552 5550 5549 5547 5544 5543 5541 5540 5538 5536 5533 5531 5528 5526 5523 5521 5518 5516 5513 5512 5509 5507 5504 5501 5497 5495 5493 5490 5488 5485 5482 5478 5474 5470 5466 5462 5457 5453 5450 5445 5443 5442 5437 5433 5431 5426 5420 5415 5405 5396 5391 5380 5363 5361 5363 5354 5346 5341
5585 5583 5582 5582 5581 5580 5579 5578 5577 5575 5574 5572 5571 5569 5568 5566 5564 5562 5560 5558 5556 5554 5553 5551 5549 5548 5546 5544 5542 5540 5538 5536 5534 5532 5530 5528 5526 5524 5522 5519 5517 5515 5512 5509 5506 5503 5501 5500 5497 5494 5491 5488 5485 5483 5480 5477 5475 5472 5469 5464 5460 5456 5453 5448 5442 5438 5434 5431 5428 5424 5418 5415 5409 5400 5395 5389 5378 5371 5366 5351 5342 5340 5336 5334 5332
5576 5574 5574 5573 5572 5571 5570 5568 5567 5566 5565 5563 5562 5560 5558 5556 5554 5553 5551 5549 5548 5546 5544 5542 5541 5539 5537 5536 5534 5531 5529 5526 5525 5523 5521 5519 5518 5515 5513 5511 5508 5505 5503 5500 5497 5494 5491 5490 5488 5484 5481 5478 5475 5473 5471 5467 5465 5462 5458 5453 5448 5444 5440 5436 5430 5424 5419 5417 5415 5409 5403 5400 5394 5383 5375 5372 5363 5354 5349 5340 5329 5324 5319 5319 5323
5567 5566 5565 5564 5563 5562 5561 5559 5558 5557 5556 5554 5553 5551 5549 5547 5545 5544 5542 5540 5539 5537 5535 5534 5532 5530 5528 5526 5524 5521 5519 5518 5516 5514 5512 5511 5509 5507 5505 5502 5499 5496 5493 5491 5488 5485 5483 5480 5478 5475 5471 5469 5466 5463 5461 5458 5455 5451 5448 5443 5438 5433 5428 5423 5419 5413 5406 5402 5401 5397 5389 5383 5380 5372 5359 5352 5347 5339 5334 5327 5318 5311 5306 5305 5310
5556 5555 5555 5554 5553 5551 5550 5549 5548 5547 5546 5544 5543 5541 5539 5538 5536 5535 5533 5532 5530 5528 5527 5525 5523 5521 5519 5517 5515 5512 5511 5510 5508 5505 5504 5502 5501 5499 5496 5492 5490 5487 5484 5482 5479 5477 5474 5471 5468 5466 5462 5459 5456 5454 5451 5449 5445 5442 5438 5434 5428 5422 5417 5411 5406 5402 5396 5392 5389 5388 5379 5366 5361 5360 5347 5335 5330 5324 5317 5313 5306 5298 5295 5294 5296
5544 5544 5544 5543 5541 5540 5539 5539 5538 5537 5536 5534 5533 5531 5530 5529 5528 5526 5525 5523 5522 5520 5518 5516 5514 5512 5510 5508 5506 5504 5502 5501 5499 5496 5495 5494 5492 5490 5488 5484 5481 5478 5475 5473 5470 5467 5464 5462 5459 5456 5452 5449 5446 5444 5442 5439 5436 5433 5429 5424 5419 5414 5408 5402 5396 5390 5384 5378 5375 5375 5370 5355 5345 5344 5335 5321 5314 5309 5302 5298 5293 5287 5284 5283 5284
5533 5533 5533 5531 5530 5530 5529 5529 5528 5527 5526 5524 5523 5522 5521 5520 5519 5518 5516 5514 5512 5511 5509 5507 5505 5503 5501 5499 5497 5495 5493 5491 5490 5488 5486 5485 5483 5482 5480 5477 5473 5470 5467 5464 5461 5458 5454 5452 5450 5446 5443 5439 5436 5433 5431 5429 5426 5423 5419 5415 5411 5406 5400 5394 5387 5381 5374 5366 5359 5358 5356 5346 5335 5330 5323 5310 5300 5295 5288 5283 5280 5275 5273 5273 5273
5523 5523 5522 5520 5520 5520 5519 5519 5518 5517 5516 5515 5514 5513 5512 5511 5510 5508 5507 5505 5503 5502 5500 5498 5496 5495 5493 5491 5488 5486 5484 5482 5481 5479 5477 5476 5475 5473 5471 5468 5465 5462 5458 5454 5451 5448 5444 5442 5440 5437 5433 5430 5426 5422 5420 5418 5415 5413 5410 5406 5402 5397 5391 5383 5377 5371 5364 5356 5349 5342 5339 5334 5326 5318 5312 5300 5289 5283 5275 5271 5268 5263 5260 5261 5261
5513 5513 5511 5510 5509 5509 5509 5508 5508 5507 5506 5505 5505 5504 5503 5502 5501 5499 5498 5497 5495 5493 5491 5489 5488 5486 5484 5482 5480 5477 5476 5475 5473 5471 5470 5468 5466 5465 5462 5460 5457 5453 5450 5446 5442 5438 5434 5431 5429 5426 5423 5419 5415 5411 5408 5406 5405 5402 5400 5397 5392 5388 5382 5375 5367 5361 5353 5345 5338 5330 5323 5318 5310 5303 5296 5285 5275 5269 5261 5260 5260 5253 5246 5248 5250
5503 5501 5500 5499 5499 5499 5499 5499 5499 5498 5497 5497 5496 5496 5495 5494 5493 5491 5490 5488 5486 5484 5483 5481 5480 5479 5476 5474 5472 5470 5468 5467 5465 5463 5461 5459 5458 5456 5454 5451 5448 5445 5441 5437 5433 5428 5424 5421 5418 5416 5413 5409 5405 5401 5397 5395 5394 5392 5389 5387 5384 5379 5373 5367 5360 5353 5345 5336 5328 5320 5312 5305 5296 5288 5282 5271 5261 5253 5244 5245 5248 5241 5233 5235 5239
5492 5490 5489 5489 5489 5490 5490 5490 5490 5489 5488 5488 5487 5487 5486 5485 5484 5483 5481 5480 5478 5476 5475 5474 5472 5471 5469 5466 5464 5462 5461 5459 5457 5455 5452 5451 5449 5447 5445 5442 5438 5435 5431 5427 5423 5419 5415 5411 5408 5405 5403 5399 5395 5391 5388 5385 5383 5381 5378 5376 5374 5369 5363 5358 5352 5346 5339 5330 5321 5312 5304 5296 5286 5278 5272 5263 5253 5243 5233 5232 5234 5228 5222 5224 5225
5482 5480 5479 5479 5480 5480 5481 5480 5480 5479 5479 5478 5478 5477 5477 5476 5475 5474 5473 5471 5469 5468 5467 5466 5464 5463 5461 5459 5456 5454 5453 5451 5448 5446 5444 5442 5440 5437 5435 5432 5428 5425 5422 5418 5414 5410 5406 5402 5398 5395 5392 5389 5385 5381 5378 5374 5372 5370 5367 5364 5362 5359 5354 5348 5342 5336 5331 5324 5316 5307 5299 5289 5277 5267 5262 5255 5246 5236 5227 5223 5222 5217 5213 5214 5213
5472 5470 5469 5470 5470 5471 5471 5470 5470 5469 5469 5468 5468 5468 5467 5467 5466 5465 5464 5462 5461 5460 5459 5458 5456 5455 5453 5451 5448 5446 5445 5443 5440 5438 5435 5433 5431 5428 5425 5422 5419 5416 5413 5409 5405 5401 5398 5394 5389 5386 5382 5379 5376 5372 5369 5365 5361 5359 5355 5352 5349 5346 5343 5339 5332 5325 5318 5313 5307 5299 5291 5283 5272 5259 5251 5245 5237 5230 5222 5217 5213 5209 5205 5205 5204
5462 5461 5460 5461 5461 5462 5462 5461 5460 5460 5459 5459 5459 5459 5458 5458 5456 5455 5455 5454 5453 5452 5451 5450 5448 5447 5445 5443 5441 5438 5436 5434 5431 5429 5427 5424 5421 5418 5416 5413 5411 5408 5405 5401 5397 5393 5389 5385 5381 5377 5374 5371 5367 5363 5360 5356 5352 5349 5345 5341 5337 5333 5329 5326 5321 5315 5307 5301 5295 5288 5281 5273 5265 5253 5242 5234 5228 5222 5217 5211 5206 5201 5198 5197 5195
5453 5452 5451 5452 5452 5453 5453 5452 5451 5451 5450 5451 5451 5450 5449 5448 5447 5446 5445 5445 5444 5443 5442 5441 5439 5438 5436 5434 5432 5430 5428 5426 5423 5420 5418 5415 5412 5409 5406 5404 5402 5400 5396 5392 5388 5384 5380 5377 5373 5369 5365 5362 5358 5354 5351 5348 5344 5340 5335 5331 5326 5321 5316 5312 5307 5302 5296 5289 5282 5276 5269 5260 5253 5244 5234 5225 5219 5214 5209 5205 5200 5195 5192 5189 5186
5444 5443 5442 5443 5443 5443 5442 5442 5441 5441 5441 5441 5441 5441 5440 5438 5437 5436 5435 5435 5434 5433 5433 5431 5430 5428 5427 5425 5423 5421 5418 5416 5414 5411 5408 5406 5403 5400 5397 5395 5393 5391 5387 5383 5379 5376 5372 5368 5364 5361 5357 5354 5350 5346 5342 5339 5335 5331 5326 5321 5315 5310 5305 5300 5294 5288 5282 5276 5269 5263 5256 5247 5239 5232 5224 5216 5212 5207 5202 5198 5193 5188 5185 5182 5179
5434 5433 5433 5433 5433 5432 5432 5432 5431 5431 5431 5431 5432 5432 5431 5429 5427 5427 5426 5425 5424 5423 5422 5421 5420 5419 5417 5415 5413 5411 5409 5406 5404 5402 5399 5397 5394 5391 5388 5385 5383 5381 5378 5374 5370 5366 5363 5360 5356 5352 5349 5345 5342 5338 5333 5329 5325 5321 5316 5311 5306 5300 5294 5288 5282 5276 5269 5263 5257 5251 5243 5234 5225 5219 5213 5208 5203 5200 5195 5190 5186 5182 5178 5176 5173
5425 5424 5423 5423 5422 5422 5422 5422 5421 5421 5420 5421 5422 5422 5421 5419 5418 5417 5416 5415 5414 5412 5411 5410 5409 5408 5407 5405 5404 5401 5399 5397 5395 5393 5390 5388 5385 5383 5379 5376 5373 5370 5367 5364 5360 5357 5354 5350 5347 5343 5340 5336 5333 5328 5324 5319 5315 5311 5306 5301 5296 5290 5284 5277 5271 5264 5258 5252 5246 5239 5231 5223 5214 5207 5202 5198 5195 5192 5187 5183 5180 5176 5171 5169 5167
5415 5414 5414 5413 5413 5413 5412 5412 5411 5411 5410 5410 5411 5411 5410 5409 5408 5407 5406 5404 5403 5402 5401 5399 5398 5397 5396 5395 5393 5391 5390 5388 5386 5383 5381 5379 5376 5374 5371 5367 5364 5361 5357 5354 5350 5347 5344 5341 5338 5334 5331 5327 5324 5319 5315 5310 5305 5301 5296 5291 5285 5279 5272 5266 5259 5253 5247 5240 5233 5227 5219 5211 5204 5198 5193 5190 5187 5183 5179 5176 5173 5170 5165 5162 5161
5405 5405 5404 5403 5403 5403 5402 5401 5401 5401 5400 5399 5399 5400 5399 5398 5397 5396 5395 5394 5393 5391 5390 5389 5387 5386 5385 5384 5382 5381 5379 5377 5375 5374 5372 5370 5368 5365 5362 5359 5355 5351 5348 5345 5341 5338 5335 5332 5329 5326 5322 5319 5315 5311 5307 5302 5297 5292 5286 5280 5274 5268 5261 5254 5247 5241 5234 5228 5221 5214 5206 5200 5195 5190 5186 5182 5179 5175 5171 5168 5166 5164 5160 5156 5155
5395 5394 5393 5393 5393 5393 5392 5392 5391 5390 5389 5388 5387 5387 5386 5386 5385 5385 5384 5383 5382 5381 5380 5379 5377 5376 5375 5373 5372 5370 5368 5366 5364 5363 5362 5360 5358 5356 5353 5350 5346 5342 5339 5336 5332 5328 5326 5323 5320 5317 5314 5311 5307 5303 5299 5294 5289 5284 5278 5271 5264 5258 5251 5245 5238 5230 5222 5215 5208 5202 5196 5190 5185 5182 5178 5175 5172 5168 5164 5161 5158 5157 5154 5150 5149
5383 5383 5383 5383 5383 5382 5382 5381 5381 5379 5377 5376 5376 5376 5376 5375 5375 5374 5373 5372 5372 5371 5370 5369 5368 5366 5364 5363 5361 5360 5358 5356 5353 5352 5351 5350 5348 5346 5344 5341 5337 5333 5329 5327 5323 5320 5317 5315 5312 5309 5306 5303 5300 5296 5292 5288 5283 5277 5270 5264 5257 5250 5243 5237 5230 5223 5214 5205 5197 5192 5186 5182 5178 5174 5171 5168 5165 5161 5157 5154 5151 5149 5147 5144 5143
5372 5372 5372 5372 5372 5371 5370 5370 5369 5368 5366 5366 5366 5366 5365 5365 5365 5364 5363 5362 5360 5359 5359 5358 5357 5356 5354 5353 5351 5349 5348 5346 5343 5341 5340 5339 5337 5336 5333 5330 5327 5324 5320 5317 5314 5311 5309 5307 5305 5302 5299 5296 5293 5289 5285 5281 5277 5271 5264 5257 5249 5243 5237 5229 5222 5214 5205 5196 5188 5182 5177 5174 5170 5167 5164 5161 5159 5156 5152 5148 5145 5142 5140 5138 5136
5359 5360 5360 5360 5360 5360 5359 5358 5358 5357 5357 5356 5356 5356 5355 5355 5355 5354 5353 5351 5350 5349 5348 5347 5346 5345 5344 5343 5341 5339 5338 5336 5334 5332 5330 5328 5327 5325 5323 5320 5318 5315 5311 5309 5306 5304 5302 5300 5297 5294 5291 5288 5285 5281 5278 5274 5269 5265 5259 5251 5242 5235 5228 5221 5213 5205 5196 5188 5181 5175 5171 5167 5164 5160 5157 5154 5152 5150 5146 5142 5139 5136 5133 5131 5130
5345 5347 5347 5347 5347 5347 5346 5346 5346 5346 5346 5346 5345 5345 5345 5345 5344 5343 5342 5340 5339 5338 5337 5337 5335 5334 5333 5332 5330 5330 5329 5328 5326 5323 5321 5319 5317 5316 5313 5310 5308 5305 5302 5300 5298 5296 5294 5292 5289 5286 5283 5280 5277 5273 5269 5265 5261 5256 5250 5244 5236 5227 5219 5211 5204 5196 5187 5180 5174 5169 5165 5161 5157 5154 5151 5148 5145 5143 5141 5137 5133 5130 5127 5125 5123
5331 5332 5333 5333 5333 5333 5333 5333 5333 5333 5333 5333 5333 5333 5333 5333 5333 5332 5330 5329 5328 5327 5326 5326 5324 5323 5322 5321 5320 5319 5318 5318 5316 5314 5312 5310 5309 5306 5303 5301 5298 5296 5294 5292 5290 5288 5286 5284 5282 5279 5276 5272 5269 5265 5261 5257 5252 5247 5241 5234 5227 5219 5210 5202 5194 5187 5179 5172 5167 5163 5160 5156 5151 5148 5145 5142 5139 5137 5135 5132 5128 5125 5122 5119 5117
5315 5317 5319 5319 5320 5320 5319 5319 5318 5318 5319 5320 5320 5321 5321 5321 5321 5320 5319 5318 5318 5316 5315 5314 5312 5311 5310 5309 5309 5309 5308 5307 5306 5305 5303 5302 5299 5297 5294 5292 5289 5287 5285 5284 5282 5281 5279 5277 5275 5272 5268 5265 5261 5257 5253 5248 5243 5238 5232 5225 5217 5209 5201 5193 5186 5179 5173 5166 5161 5157 5154 5150 5146 5142 5139 5136 5134 5132 5129 5126 5122 5119 5116 5113 5111
5301 5303 5304 5305 5306 5306 5306 5305 5304 5304 5305 5306 5306 5307 5308 5308 5308 5308 5308 5307 5306 5305 5304 5302 5300 5300 5299 5298 5298 5298 5298 5298 5296 5295 5294 5292 5290 5287 5285 5283 5281 5279 5278 5277 5275 5274 5272 5270 5267 5264 5261 5257 5253 5249 5245 5241 5235 5230 5224 5217 5209 5201 5193 5185 5179 5172 5167 5162 5157 5153 5149 5145 5141 5137 5134 5131 5128 5126 5123 5120 5117 5114 5111 5108 5106
5286 5288 5290 5292 5293 5292 5291 5290 5290 5290 5291 5291 5292 5293 5294 5294 5294 5294 5294 5294 5293 5293 5291 5289 5288 5288 5287 5287 5287 5288 5288 5288 5286 5285 5284 5282 5280 5279 5277 5275 5273 5272 5270 5269 5268 5267 5265 5262 5260 5257 5253 5249 5246 5242 5237 5233 5228 5222 5215 5207 5200 5192 5185 5178 5172 5166 5161 5157 5152 5148 5144 5140 5136 5132 5129 5126 5124 5121 5118 5115 5112 5109 5106 5103 5102
5270 5272 5274 5276 5277 5277 5277 5277 5276 5276 5276 5276 5278 5279 5279 5280 5279 5279 5279 5279 5279 5279 5277 5276 5275 5275 5275 5276 5277 5278 5278 5278 5276 5275 5274 5272 5271 5271 5269 5268 5266 5265 5263 5262 5261 5259 5257 5255 5252 5249 5246 5242 5239 5235 5231 5226 5220 5214 5207 5199 5192 5184 5177 5170 5165 5160 5156 5152 5148 5144 5139 5136 5131 5127 5124 5121 5119 5116 5113 5110 5107 5104 5102 5099 5097
5253 5256 5258 5259 5259 5260 5261 5262 5262 5261 5261 5262 5263 5264 5264 5265 5265 5264 5264 5264 5264 5264 5263 5263 5263 5263 5264 5266 5267 5268 5268 5267 5266 5265 5265 5264 5264 5263 5262 5260 5259 5258 5257 5256 5254 5252 5250 5248 5245 5242 5239 5236 5232 5229 5224 5219 5213 5206 5200 5193 5185 5177 5170 5165 5160 5155 5151 5147 5144 5139 5135 5131 5127 5124 5120 5117 5115 5112 5109 5106 5103 5101 5099 5096 5094
5235 5238 5240 5241 5241 5242 5244 5245 5245 5245 5246 5247 5248 5249 5250 5251 5250 5251 5251 5251 5250 5250 5251 5252 5253 5254 5255 5256 5257 5258 5258 5257 5257 5258 5257 5257 5256 5256 5255 5254 5253 5251 5250 5249 5247 5246 5244 5241 5238 5235 5232 5229 5225 5221 5217 5212 5206 5199 5193 5186 5179 5172 5165 5160 5156 5152 5148 5144 5140 5136 5131 5127 5123 5120 5117 5113 5110 5108 5105 5103 5100 5097 5095 5094 5091
5218 5220 5223 5225 5226 5227 5228 5229 5230 5231 5233 5234 5236 5237 5238 5238 5238 5238 5239 5239 5239 5240 5241 5243 5244 5245 5246 5248 5249 5250 5250 5250 5250 5250 5250 5250 5250 5249 5249 5248 5247 5245 5244 5243 5241 5239 5237 5233 5230 5228 5224 5221 5218 5214 5209 5204 5198 5192 5185 5179 5172 5166 5160 5154 5151 5147 5144 5140 5136 5132 5128 5123 5120 5117 5114 5111 5107 5104 5101 5099 5097 5094 5093 5091 5089
5205 5207 5210 5211 5213 5214 5216 5217 5218 5221 5223 5224 5226 5228 5228 5228 5228 5228 5229 5230 5231 5232 5233 5234 5236 5237 5239 5240 5241 5242 5242 5243 5243 5244 5244 5244 5244 5244 5243 5242 5241 5239 5238 5237 5234 5232 5229 5227 5224 5221 5217 5214 5210 5206 5202 5196 5190 5185 5179 5172 5166 5160 5155 5150 5146 5143 5140 5136 5132 5128 5124 5120 5116 5113 5110 5107 5104 5101 5098 5096 5094 5092 5090 5089 5087
5194 5196 5198 5200 5202 5204 5205 5207 5209 5212 5214 5216 5218 5218 5218 5218 5219 5220 5221 5222 5224 5225 5226 5227 5228 5230 5231 5233 5234 5235 5236 5237 5238 5238 5238 5238 5238 5238 5237 5236 5235 5234 5232 5230 5228 5225 5223 5220 5218 5214 5211 5207 5204 5199 5195 5189 5184 5178 5173 5167 5161 5155 5150 5146 5142 5139 5136 5132 5128 5125 5121 5117 5113 5110 5107 5104 5101 5098 5095 5093 5092 5090 5088 5087 5085
5184 5186 5188 5190 5192 5195 5197 5199 5202 5204 5206 5208 5208 5208 5209 5210 5211 5212 5214 5215 5216 5218 5219 5220 5221 5223 5224 5226 5228 5229 5230 5231 5232 5232 5232 5233 5232 5232 5231 5230 5229 5228 5226 5224 5222 5219 5217 5214 5211 5208 5204 5201 5197 5192 5188 5183 5177 5172 5167 5161 5156 5150 5145 5141 5138 5135 5132 5129 5125 5122 5118 5114 5111 5107 5104 5101 5098 5095 5092 5091 5090 5088 5087 5085 5084
5175 5177 5179 5182 5184 5187 5189 5191 5194 5195 5197 5198 5199 5199 5200 5202 5204 5206 5207 5208 5209 5211 5212 5213 5215 5217 5219 5221 5222 5224 5225 5225 5226 5226 5227 5227 5227 5226 5226 5225 5224 5222 5221 5219 5216 5214 5211 5208 5204 5201 5197 5194 5189 5184 5179 5174 5170 5165 5160 5155 5150 5145 5140 5137 5133 5130 5127 5124 5121 5118 5115 5111 5108 5105 5101 5098 5095 5092 5090 5089 5088 5086 5085 5083 5082
5167 5170 5172 5174 5177 5179 5181 5183 5185 5186 5188 5189 5190 5192 5193 5195 5197 5199 5200 5201 5203 5204 5205 5207 5209 5211 5213 5215 5217 5218 5219 5220 5221 5221 5221 5221 5221 5221 5220 5219 5218 5217 5215 5213 5211 5208 5205 5202 5198 5195 5191 5187 5182 5177 5172 5167 5162 5157 5152 5148 5143 5139 5136 5132 5129 5125 5122 5119 5117 5114 5111 5108 5105 5102 5099 5096 5092 5090 5088 5087 5086 5085 5083 5082 5081
5160 5162 5164 5167 5169 5172 5174 5175 5177 5178 5179 5181 5183 5185 5187 5189 5190 5192 5193 5194 5196 5197 5199 5202 5204 5206 5208 5210 5211 5212 5214 5215 5215 5216 5216 5216 5216 5215 5215 5214 5213 5211 5209 5207 5205 5202 5199 5196 5193 5190 5186 5181 5176 5171 5166 5161 5156 5151 5146 5141 5137 5133 5130 5128 5124 5121 5118 5115 5113 5110 5107 5105 5102 5099 5096 5093 5090 5088 5086 5084 5083 5083 5081 5080 5080
5152 5154 5157 5160 5163 5164 5166 5167 5168 5170 5172 5174 5177 5179 5181 5182 5183 5184 5186 5188 5190 5192 5194 5197 5199 5201 5203 5205 5206 5208 5209 5210 5210 5211 5211 5211 5211 5210 5209 5208 5207 5205 5203 5201 5198 5195 5193 5190 5188 5184 5180 5176 5171 5166 5161 5156 5151 5146 5141 5136 5132 5129 5126 5124 5121 5118 5115 5112 5109 5106 5104 5101 5099 5096 5093 5090 5088 5086 5084 5083 5081 5080 5079 5078 5078
5146 5149 5151 5154 5156 5157 5159 5160 5161 5163 5166 5168 5170 5172 5174 5175 5176 5178 5180 5183 5185 5188 5190 5192 5194 5197 5199 5200 5202 5203 5204 5205 5205 5206 5206 5206 5205 5205 5204 5203 5201 5199 5197 5194 5191 5189 5187 5184 5181 5178 5174 5169 5165 5160 5156 5151 5146 5141 5137 5132 5128 5125 5123 5120 5117 5114 5112 5109 5107 5104 5101 5098 5095 5093 5090 5088 5085 5084 5082 5081 5079 5078 5077 5077 5076
5141 5144 5146 5148 5149 5150 5151 5153 5155 5158 5160 5162 5164 5165 5167 5169 5171 5174 5176 5179 5182 5184 5186 5189 5191 5193 5195 5196 5198 5199 5200 5200 5201 5201 5201 5201 5200 5199 5198 5197 5195 5192 5190 5188 5186 5184 5181 5178 5175 5171 5167 5163 5159 5155 5151 5146 5141 5137 5133 5128 5125 5122 5119 5116 5114 5111 5109 5106 5104 5101 5098 5095 5093 5090 5088 5086 5083 5081 5080 5079 5077 5076 5075 5075 5075
5137 5139 5141 5142 5143 5144 5145 5147 5149 5152 5154 5156 5158 5160 5163 5165 5168 5171 5173 5176 5179 5181 5183 5186 5188 5189 5191 5192 5194 5195 5195 5196 5196 5196 5196 5195 5195 5194 5192 5190 5188 5186 5184 5182 5180 5178 5175 5172 5168 5165 5160 5156 5152 5149 5145 5141 5136 5132 5128 5124 5121 5118 5116 5113 5111 5108 5106 5103 5101 5099 5096 5093 5091 5088 5086 5084 5082 5080 5078 5077 5075 5074 5073 5073 5073
5133 5134 5135 5135 5136 5137 5139 5142 5144 5147 5149 5152 5154 5157 5159 5162 5165 5168 5171 5174 5176 5178 5181 5183 5184 5186 5188 5189 5190 5190 5191 5191 5191 5191 5191 5190 5189 5188 5186 5184 5182 5181 5179 5176 5174 5172 5168 5165 5162 5158 5154 5150 5146 5142 5139 5135 5131 5127 5124 5120 5117 5114 5112 5110 5108 5106 5103 5100 5098 5096 5093 5091 5088 5086 5084 5082 5080 5078 5076 5075 5074 5073 5072 5071 5072